NO-0018 weather

Gossen Airfield
Aukra, Møre og Romsdal, Norway

Public forecast

Using degrees Celsius for public forecast. Weather courtesy of forecast.io.

METAR (pilot weather report)

Closest report is Molde Airport, 13.1 nm (24.2 km) ESE. Retrieved 2019/07/24 01:20 UTC (22 minutes ago):

ENML 240120Z AUTO 01003KT 9999NDV NCD 16/15 Q1017

TAF (pilot weather forecast)

Forecast is more than 12 hours old.

Closest forecast is Molde Airport, 13.1 nm (24.2 km) ESE. Retrieved 2011/03/08 08:45 UTC (8 years ago):

TAF TAF ESDF 0808 FCNO33 ENMI 080800 RRC TAF ENML 080800Z 0809/0818 21015KT 9999 FEW030 BKN050 TEMPO 0809/0818 21022G35KT BECMG 0815/0818 21022G35KT TEMPO 0815/0818 4000 RADZ BKN012